Location: Unspecified
(0.0000°N, 0.0000°E)
Time: 03:45:42
(UTC+00:00)

N. Korean satellite - Pass Details

Date: 02 October 2022
Orbit: 427 x 468 km, 97.3° (Epoch: 25 September)

Event Time Altitude Azimuth Distance (km) Brightness Sun altitude
Rises 04:26:08 0° 28° (NNE) 2,384 10.4 -20.8°
Reaches altitude 10° 04:28:18 10° 40° (NE) 1,526 9.5 -20.2°
Maximum altitude 04:31:09 28° 101° (E) 840 8.5 -19.5°
Drops below altitude 10° 04:34:03 10° 162° (SSE) 1,548 9.4 -18.8°
Sets 04:36:16 0° 174° (S) 2,427 10.2 -18.3°
